Miscellaneous Local Product
Issued by NWS North Platte, NE

Home | Current Version | Previous Version | Graphics & Text | Print | Product List | Glossary On
Versions: 1 2 3 4 5 6 7 8 9 10 11 12 13 14 15 16 17 18 19 20 21 22 23 24 25 26 27 28 29 30 31 32 33 34 35 36 37 38 39 40 41 42 43 44 45 46 47 48 49 50
000
AXUS43 KLBF 162010
MISLBF


WESTERN AND NORTH CENTRAL NEBRASKA HOURLY WEATHER ROUNDUP
NATIONAL WEATHER SERVICE NORTH PLATTE NE
300 PM CDT TUE SEP 16 2014

***STATIONS NOT REPORTING VARIABLES SUCH AS SKY/WEATHER OR
PRESSURE ARE PROVIDED BY THE NEBRASKA DEPARTMENT OF
ROADS...RAWS...AND APRS NETWORKS...AND ARE NOT UNDER
NATIONAL WEATHER SERVICE QUALITY CONTROL***

...OBSERVATIONS IN AND NEAR THE EASTERN PANHANDLE OF NEBRASKA...

CITY           SKY/WX    TMP DP  RH WIND       PRES   REMARKS
PINE RIDGE     SUNNY     79  49  34 N5        30.01F
CHADRON        MOSUNNY   80  48  32 W6        30.00S
ALLIANCE       MOSUNNY   83  45  26 NW7       30.03F
SIDNEY         MOSUNNY   85  42  22 N12       30.08R
WHITECLAY        N/A     78  48  34 NW3         N/A
RUSHVILLE        N/A     86  34  15 NE9         N/A
CRESCENT LAKE    N/A     80  54  40 N9          N/A
LISCO            N/A     85  53  33 W10         N/A
BIG SPRINGS      N/A     78  56  46 W5          N/A
$$

...OBSERVATIONS IN NORTH CENTRAL NEBRASKA...

CITY           SKY/WX    TMP DP  RH WIND       PRES   REMARKS
VALENTINE      MOSUNNY   79  56  45 SW5       29.97F
THEDFORD       SUNNY     77  57  50 SW9G17    30.00F
AINSWORTH      MOSUNNY   75  56  51 SW9       29.98F
O`NEILL        PTSUNNY   69  57  65 S15G23    30.02F
ORD            CLOUDY    68  55  63 S13       30.02F
BROKEN BOW     CLOUDY    66  55  67 S15G21    30.04F
SPRINGVIEW       N/A     76  58  53 SW8G15      N/A
ROSE             N/A     75  60  59 S15         N/A
NEWPORT          N/A     75  57  53 S15         N/A
COMSTOCK         N/A     72  60  66 S9          N/A
CHAMBERS         N/A     71  55  56 SW13G21     N/A
$$

...OBSERVATIONS IN SOUTHWEST NEBRASKA AND FAR NORTHEAST COLORADO...

CITY           SKY/WX    TMP DP  RH WIND       PRES   REMARKS
WRAY           FAIR      89  48  24 SW3       30.01F
HOLYOKE        FAIR      86  45  23 W12G18    30.02F
IMPERIAL       SUNNY     82  54  37 SW6       30.00F
OGALLALA       SUNNY     80  57  46 W5        30.00F
NORTH PLATTE   SUNNY     73  57  57 VRB7G21   30.01F
MCCOOK         SUNNY     75  57  53 S16G22    30.02F
LEXINGTON      CLOUDY    66  58  74 S12       30.04F
PAXTON           N/A     76  60  57 SW8         N/A
SUTHERLAND       N/A     79  58  47 S8          N/A
BRADY            N/A     73  60  65 CALM        N/A
GOTHENBURG       N/A     67  53  61 S12         N/A
CALLAWAY         N/A     64  57  79 S10         N/A
$$

...SOME WEATHER OBSERVATIONS FROM AROUND THE REGION...

CITY           SKY/WX    TMP DP  RH WIND       PRES   REMARKS
DENVER         MOSUNNY   84  34  16 VRB3      30.15F
LARAMIE        MOSUNNY   77  30  17 W15G25    30.27F
CHEYENNE       SUNNY     80  29  15 N16G22    30.19F
SCOTTSBLUFF    MOSUNNY   83  50  31 W10       30.05F
RAPID CITY     SUNNY     78  44  29 MISG      29.99F
PIERRE         SUNNY     74  52  46 CALM      29.93F
WINNER         FAIR      76  54  46 W10G17    29.95F
SIOUX FALLS    PTSUNNY   66  48  52 S14       30.04F
OMAHA          MOSUNNY   67  48  50 SE9       30.11F
GRAND ISLAND   PTSUNNY   70  54  56 S10       30.07F
KANSAS CITY    SUNNY     68  50  52 SE3       30.13F
WICHITA        MOSUNNY   78  59  51 VRB6      30.09F
HAYS           CLOUDY    72  57  60 S14       30.07F
LIBERAL        SUNNY     82  61  47 SW20      30.11F
GOODLAND       SUNNY     81  56  42 S14       30.05F
$$



USA.gov is the U.S. government's official web portal to all federal, state and local government web resources and services.